Home   Weather   Nærbø   Past weeks

Flag for Norway Past Weather in Nærbø, Norway — Yesterday and Last 2 Weeks

52 °F

Light rain. Passing clouds.

Feels Like: 48 °F
Forecast: 51 / 53 °F
Wind: 12 mph from Southwest

Location: Stavanger / Sola

Current Time: Oct 27, 2016 at 9:06:10 PM

Latest Report: Oct 27, 2016 at 8:20 PM

Visibility: N/A

Pressure: 29.92 "Hg

Humidity: 94%

Dew Point: 50 °F

Location of NærbøLocation

Past Weather in Nærbø — Graph


Nærbø Temperature Yesterday

Maximum temperature yesterday: 52 °F (at 3:20 PM)
Minimum temperature yesterday: 41 °F (at 12:50 AM)
Average temperature yesterday: 48 °F

High & Low Weather Summary for the Past Weeks

High57 °F (Oct 17, 1:20 PM)100% (Oct 20, 2:50 AM)30.51 "Hg (Oct 20, 2:50 AM)
Low30 °F (Oct 25, 6:20 AM)30% (Oct 15, 12:20 PM)29.89 "Hg (Oct 18, 4:20 PM)
Average47 °F69%30.18 "Hg
* Reported Oct 12 7:20 PM — Oct 27 7:50 PM, Nærbø, Weather by CustomWeather, © 2016

Note: Actual official high and low records may vary slightly from our data, if they occured in-between our weather recording intervals... More about our weather records


Nærbø Weather History for the Previous 24 Hours

Scroll right to see more
Time TempWeatherWind HumidityBarometerVisibility
7:50 PM
Thu, Oct 27
52 °FLight rain. Passing clouds.13 mph88%29.95 "Hg6 mi
7:20 PM52 °FLight rain. Passing clouds.13 mph88%29.95 "Hg6 mi
6:50 PM52 °FPassing clouds.12 mph88%29.95 "Hg6 mi
6:20 PM52 °FLight rain. Passing clouds.10 mph88%29.98 "Hg6 mi
5:50 PM50 °FLight rain. Partly sunny.9 mph94%29.98 "Hg6 mi
5:20 PM52 °FPartly sunny.10 mph88%29.98 "Hg6 mi
4:50 PM52 °FPartly sunny.12 mph88%29.98 "Hg6 mi
4:20 PM52 °FPartly sunny.12 mph88%30.01 "Hg6 mi
3:50 PM52 °FBroken clouds.13 mph88%30.01 "Hg6 mi
3:20 PM52 °FBroken clouds.13 mph88%30.01 "Hg6 mi
2:50 PM50 °FDrizzle. Broken clouds.13 mph94%30.01 "Hg5 mi
2:20 PM50 °FBroken clouds.12 mph94%30.01 "Hg6 mi
1:50 PM50 °FDrizzle. Fog.14 mph94%30.01 "Hg3 mi
1:20 PM50 °FDrizzle. Broken clouds.13 mph94%30.04 "Hg4 mi
12:50 PM50 °FDrizzle. Broken clouds.14 mph94%30.04 "Hg6 mi
12:20 PM52 °FBroken clouds.13 mph88%30.07 "HgN/A
11:50 AM50 °FBroken clouds.14 mph94%30.07 "HgN/A
11:20 AM50 °FBroken clouds.12 mph88%30.07 "HgN/A
10:50 AM50 °FBroken clouds.12 mph88%30.07 "HgN/A
10:20 AM48 °FBroken clouds.9 mph94%30.09 "HgN/A
9:50 AM46 °FBroken clouds.7 mph93%30.09 "HgN/A
9:20 AM46 °FBroken clouds.7 mph93%30.09 "HgN/A
8:50 AM45 °FBroken clouds.7 mph93%30.09 "Hg6 mi
8:20 AM43 °FPassing clouds.7 mph100%30.09 "Hg6 mi
7:50 AM45 °FPassing clouds.7 mph93%30.07 "HgN/A
7:20 AM50 °FPartly cloudy.5 mph82%30.09 "HgN/A
6:50 AM48 °FPassing clouds.7 mph87%30.07 "HgN/A
6:20 AM50 °FPassing clouds.7 mph88%30.09 "HgN/A
5:50 AM50 °FPassing clouds.7 mph82%30.09 "HgN/A
5:20 AM50 °FPassing clouds.7 mph82%30.09 "HgN/A
4:50 AM50 °FPassing clouds.6 mph88%30.09 "HgN/A
3:50 AM50 °FPassing clouds.8 mph82%30.09 "HgN/A
2:50 AM48 °FPassing clouds.7 mph87%30.07 "HgN/A
1:50 AM50 °FPassing clouds.7 mph82%30.07 "HgN/A
12:50 AM50 °FPassing clouds.6 mph88%30.07 "HgN/A
12:20 AM50 °FPassing clouds.7 mph88%30.07 "HgN/A
11:50 PM
Wed, Oct 26
50 °FPartly cloudy.7 mph94%30.04 "HgN/A
11:20 PM50 °FPartly cloudy.8 mph94%30.04 "HgN/A
10:50 PM50 °FLight rain. Partly cloudy.7 mph100%30.04 "HgN/A
10:20 PM50 °FPartly cloudy.7 mph94%30.04 "HgN/A
9:50 PM50 °FPartly cloudy.7 mph94%30.01 "Hg4 mi
9:20 PM50 °FLight rain. Partly cloudy.8 mph94%30.04 "Hg5 mi
Weather by CustomWeather, © 2016

See weather overviewHow to use our weather pages